Retour au catalogue

GLOBALSTAR M004 DEB

ActifLEO
NORAD 43357·DEBRIS·🇺🇸 United States

Lancé Feb 14, 1998 depuis Cape Canaveral Space Force Station

Loading…

Prochains Passages (prochaines 24 heures)

TLE

FraisSource: Space-Track

Époque: Sep 14, 2026, 05:59 UTC

1 43357U 98008H   26257.24993340  .00001443  00000-0  86427-2 0  9994
2 43357  51.9707 221.3516 0095076 275.6276  83.3753 12.60800730489620

Suivez GLOBALSTAR M004 DEB en temps réel avec AllMySat

Download on the App Store